Location: Arbon
(43.0005°N, 0.7472°E)
Time: 02:46:59
(UTC+00:00)

Cosmos 2333 Rocket - Pass Details

Date: 07 August 2020
Orbit: 838 x 864 km, 70.8° (Epoch: 27 September)

Event Time Altitude Azimuth Distance (km) Brightness Sun altitude
Rises 00:41:08 0° 332° (NNW) 3,453 6.1 -30.0°
Reaches altitude 10° 00:43:37 10° 330° (NNW) 2,511 5.2 -29.9°
Enters shadow 00:48:16 55° 303° (WNW) 1,027 2.6 -29.8°
